Location: Tom
(33.0437°N, 96.9452°W)
Time: 15:46:22
(UTC-05:00)

Envisat - Pass Details

Date: 23 December 2018
Orbit: 764 x 766 km, 98.1° (Epoch: 18 October)

Event Time Altitude Azimuth Distance (km) Brightness Sun altitude
Rises 19:17:19 0° 163° (SSE) 3,215 6.2 -22.6°
Reaches altitude 10° 19:19:37 10° 163° (SSE) 2,293 5.4 -23.0°
Maximum altitude 19:24:40 80° 77° (ENE) 780 2.8 -24.1°
Drops below altitude 10° 19:29:45 10° 350° (N) 2,308 5.4 -25.1°
Sets 19:32:04 0° 350° (N) 3,237 6.2 -25.6°
